FW7134 Weather Reports


Display with metric or nautical units.
time (UTC)temp
F
wind
direction
speed
MPH
gust
MPH
rain 1hr
in
rain 24hr
in
rain mn
in
humidity
%
barometer
mb
20260504174533 54 245 15.0 27.0 0.00 0.69 0.04 100 999.6
20260504173031 53 279 20.0 33.0 0.00 0.69 0.04 100 999.4
20260504171538 52 259 19.0 30.0 0.00 0.69 0.04 100 999.5
20260504044540 39 281 4.0 11.0 0.01 0.55 0.03 100 977.2
20260504043030 40 305 1.0 9.0 0.01 0.55 0.03 100 976.7
20260504041531 40 309 1.0 5.0 0.02 0.55 0.03 100 976.5
20260504040027 40 344 3.0 8.0 0.02 0.54 0.02 100 976.3
20260504034525 40 320 2.0 5.0 0.03 0.54 0.02 100 976.2
20260504033025 40 337 3.0 8.0 0.03 0.54 0.02 100 976.0
20260504031522 39 336 2.0 5.0 0.02 0.53 0.01 100 976.1
20260504030028 39 74 0.0 3.0 0.02 0.52 0.52 100 976.2
20260504024517 39 48 1.0 11.0 0.02 0.51 0.51 100 976.5
20260504023016 40 64 4.0 12.0 0.02 0.51 0.51 100 976.6
20260504021514 40 49 3.0 15.0 0.02 0.51 0.51 100 976.8
20260504020016 40 88 7.0 15.0 0.02 0.50 0.50 100 977.1
20260504014507 41 82 8.0 16.0 0.01 0.49 0.49 100 977.6
20260504013009 41 68 9.0 20.0 0.01 0.49 0.49 100 977.7
20260504011505 41 92 12.0 21.0 0.01 0.49 0.49 100 978.4
20260504010002 40 84 9.0 18.0 0.00 0.48 0.48 100 979.3
20260504004558 40 83 5.0 15.0 0.00 0.48 0.48 100 980.0
20260504003100 40 67 7.0 17.0 0.00 0.48 0.48 100 980.6
20260504001554 40 69 9.0 19.0 0.00 0.48 0.48 100 981.8
20260504000049 40 80 14.0 24.0 0.00 0.48 0.48 100 982.7
20260503234549 40 71 12.0 22.0 0.00 0.48 0.48 100 983.5
20260503233042 39 96 10.0 19.0 0.03 0.48 0.48 100 983.8
20260503231541 39 71 8.0 17.0 0.10 0.48 0.48 100 984.6
20260503230044 39 125 9.0 21.0 0.15 0.48 0.48 100 985.3
20260503224533 39 11 8.0 18.0 0.18 0.48 0.48 100 986.6
20260503223029 39 37 7.0 23.0 0.17 0.45 0.45 100 987.4
20260503221527 39 76 12.0 18.0 0.11 0.38 0.38 100 988.7
20260503220039 40 66 10.0 19.0 0.10 0.33 0.33 100 989.6
20260503214518 40 55 9.0 19.0 0.12 0.30 0.30 100 990.3
20260503213017 40 55 9.0 17.0 0.13 0.28 0.28 100 991.2
20260503211513 41 71 10.0 18.0 0.12 0.27 0.27 100 992.1
20260503210010 41 96 10.0 19.0 0.11 0.23 0.23 100 992.9
20260503204507 41 84 13.0 20.0 0.08 0.18 0.18 100 993.5
20260503203013 41 76 12.0 20.0 0.08 0.15 0.15 100 993.8
20260503201505 41 93 13.0 22.0 0.10 0.14 0.14 100 994.1
20260503200104 41 81 12.0 20.0 0.08 0.12 0.12 100 995.1
20260503194556 41 80 9.0 18.0 0.07 0.10 0.10 100 995.8
20260503193103 42 84 10.0 18.0 0.04 0.07 0.07 100 996.9
20260503191552 42 28 11.0 17.0 0.03 0.04 0.04 100 997.7
20260503190054 42 90 9.0 20.0 0.03 0.04 0.04 100 997.9
20260503184604 42 65 10.0 27.0 0.03 0.03 0.03 100 997.6
20260503183057 42 116 9.0 21.0 0.03 0.03 0.03 100 998.2
20260503181544 42 80 10.0 29.0 0.01 0.01 0.01 100 999.4
20260503180044 42 62 14.0 24.0 0.01 0.01 0.01 100 999.8